Springfield, MO

1:43 AM CDT on August 27, 2016 (GMT -0500)
Springfield-Branson Regional

Weather History for KSGF - January, 2014

Change the Weather History Date:

Thursday, January 30, 2014

  Actual Average Record
Temperature  
Mean Temperature 37 °F 34 °F  
Max Temperature 48 °F 44 °F 74 °F (1890)
Min Temperature 25 °F 23 °F -5 °F (1966)
Degree Days  
Heating Degree Days 28 31  
Month to date heating degree days 1076 974  
Since 1 July heating degree days 2999 2784  
Cooling Degree Days 0 0  
Month to date cooling degree days 0 0  
Year to date cooling degree days 0 0  
Moisture  
Dew Point 14 °F    
Average Humidity 50    
Maximum Humidity 75    
Minimum Humidity 24    
Precipitation  
Precipitation 0.00 in 0.08 in 2.55 in (1982)
Month to date precipitation 1.26 2.39  
Year to date precipitation 1.26 2.39  
Snow  
Snow 0.00 in - - ()
Month to date snowfall 9.5  
Since 1 July snowfall 23.0  
Snow Depth 0.00 in    
Sea Level Pressure  
Sea Level Pressure 29.90 in    
Wind  
Wind Speed 15 mph (SSW)    
Max Wind Speed 33 mph    
Max Gust Speed 42 mph    
Visibility 10 miles    
Events      
T = Trace of Precipitation, MM = Missing Value Source: NWS Daily Summary

Daily Weather History Graph

Daily Weather History Graph

Search for Another Location

Airport or City:

Trip Planner

Search our weather history database for the weather conditions in past years. The results will help you decide how hot, cold, wet, or windy it might be!

Date:

Astronomy

Jan. 30, 2014 Rise Set
Actual Time 7:18 AM CST 5:36 PM CST
Civil Twilight 6:50 AM CST 6:03 PM CST
Nautical Twilight 6:19 AM CST 6:34 PM CST
Astronomical Twilight 5:48 AM CST 7:05 PM CST
Moon 6:45 AM CST (1/30) 5:47 PM CST (1/30)
Length of Visible Light 11h 13m
Length of Day
10h 17m
Waning Crescent, 0% of the Moon is Illuminated
Jan 30
Waning Crescent
Jan 30
New
Feb 6
First Quarter
Feb 14
Full
Feb 22
Last Quarter

Hourly Weather History & Observations

Time (CST) Temp. Windchill Dew Point Humidity Pressure Visibility Wind Dir Wind Speed Gust Speed Precip Events Conditions
12:52 AM 26.1 °F 15.0 °F 10.0 °F 51% 30.05 in 10.0 mi SSE 12.7 mph - N/A   Clear
1:52 AM 26.1 °F 14.5 °F 10.0 °F 51% 30.03 in 10.0 mi South 13.8 mph - N/A   Clear
2:52 AM 26.1 °F 13.6 °F 9.0 °F 49% 29.99 in 10.0 mi South 16.1 mph - N/A   Clear
3:52 AM 28.0 °F 15.3 °F 8.1 °F 43% 29.94 in 10.0 mi South 18.4 mph - N/A   Clear
4:52 AM 28.0 °F 15.3 °F 8.1 °F 43% 29.92 in 10.0 mi South 18.4 mph - N/A   Clear
5:52 AM 28.0 °F 15.7 °F 8.1 °F 43% 29.92 in 10.0 mi South 17.3 mph - N/A   Clear
6:52 AM 28.0 °F 15.3 °F 8.1 °F 43% 29.91 in 10.0 mi South 18.4 mph - N/A   Clear
7:52 AM 28.9 °F 15.4 °F 8.1 °F 41% 29.88 in 10.0 mi South 21.9 mph 28.8 mph N/A   Clear
8:52 AM 33.1 °F 18.7 °F 9.0 °F 37% 29.83 in 10.0 mi South 32.2 mph 40.3 mph N/A   Clear
9:52 AM 37.0 °F 25.6 °F 10.9 °F 34% 29.83 in 10.0 mi South 24.2 mph 39.1 mph N/A   Clear
10:52 AM 42.1 °F 31.9 °F 12.0 °F 29% 29.83 in 10.0 mi SSW 26.5 mph 35.7 mph N/A   Clear
11:52 AM 45.0 °F 36.2 °F 12.9 °F 27% 29.82 in 10.0 mi SSW 24.2 mph 32.2 mph N/A   Clear
12:52 PM 48.0 °F - 14.0 °F 26% 29.83 in 10.0 mi SSW 21.9 mph - N/A   Clear
1:52 PM 48.0 °F - 15.1 °F 27% 29.82 in 10.0 mi SW 16.1 mph 25.3 mph N/A   Clear
2:52 PM 48.0 °F - 16.0 °F 28% 29.82 in 10.0 mi WSW 16.1 mph 23.0 mph N/A   Clear
3:52 PM 46.9 °F - 17.1 °F 30% 29.84 in 10.0 mi WSW 15.0 mph - N/A   Clear
4:52 PM 46.9 °F - 18.0 °F 32% 29.86 in 10.0 mi WSW 11.5 mph - N/A   Clear
5:52 PM 37.9 °F 32.7 °F 19.0 °F 47% 29.88 in 10.0 mi SW 6.9 mph - N/A   Clear
6:52 PM 35.1 °F 30.1 °F 19.9 °F 54% 29.91 in 10.0 mi SW 5.8 mph - N/A   Clear
7:52 PM 30.0 °F 23.2 °F 19.0 °F 64% 29.94 in 10.0 mi SW 6.9 mph - N/A   Clear
8:52 PM 32.0 °F 27.5 °F 21.0 °F 64% 29.94 in 10.0 mi SSW 4.6 mph - N/A   Clear
9:52 PM 28.9 °F 25.2 °F 21.0 °F 72% 29.95 in 10.0 mi South 3.5 mph - N/A   Clear
10:52 PM 30.0 °F 25.2 °F 21.9 °F 72% 29.94 in 10.0 mi SE 4.6 mph - N/A   Clear
11:52 PM 28.9 °F 25.2 °F 21.0 °F 72% 29.94 in 10.0 mi SSE 3.5 mph - N/A   Clear